QPF
0.00 0.00 0.00 0.00 0.00 0.00 0.00 0.00 0.00 0.00 0.00 0.00 0.00 0.00 0.00 0.00 0.00 0.00 0.00 0.00 0.00 0.00 0.00 0.00 0.00 0.00 0.00 0.00 0.00 0.00 0.00 0.00 0.00 0.00 0.00 0.00 0.00 0.00 0.00 0.00 0.00 0.00 0.00 0.00
0.00 0.00 0.00 0.00 0.00 0.00 0.00 0.00 0.00 0.00 0.00 0.00 0.00 0.00 0.00 0.00 0.00 0.00 0.00 0.00 0.00 0.00 0.00 0.00 0.00 0.00 0.00 0.00 0.00 0.00 0.00 0.00 0.00 0.00 0.00 0.00 0.00 0.00 0.00 0.00 0.00 0.00 0.00 0.00
0.00 0.00 0.00 0.00 0.00 0.00 0.00 0.00 0.00 0.00 0.00 0.00 0.00 0.00 0.00 0.00 0.00 0.00 0.00 0.00 0.00 0.00 0.00 0.00 0.00 0.00 0.00 0.00 0.00 0.00 0.00 0.00 0.00 0.00 0.00 0.00 0.00 0.00 0.00 0.00 0.00 0.00 0.00 0.00
0.00 0.00 0.00 0.00 0.00 0.00 0.00 0.00 0.00 0.00 0.00 0.00 0.00 0.00 0.00 0.00 0.00 0.00 0.00 0.00 0.00 0.00 0.00 0.00 0.00 0.00 0.00 0.00 0.00 0.00 0.00 0.00 0.00 0.00 0.00 0.00 0.00 0.00 0.00 0.00 0.00 0.00 0.00 0.00
0.00 0.00 0.00 0.00 0.00 0.00 0.00 0.00 0.00 0.00 0.00 0.00 0.00 0.00 0.00 0.00 0.00 0.00 0.00 0.00 0.00 0.00 0.00 0.00 0.00 0.00 0.00 0.00 0.00 0.00 0.00 0.00 0.00 0.00 0.00 0.00 0.00 0.00 0.00 0.00 0.00 0.00 0.00 0.00
0.00 0.00 0.00 0.00 0.00 0.00 0.00 0.00 0.00 0.00 0.00 0.00 0.00 0.00 0.00 0.00 0.00 0.00 0.00 0.00 0.00 0.00 0.00 0.00 0.00 0.00 0.00 0.00 0.00 0.00 0.00 0.00 0.00 0.00 0.00 0.00 0.00 0.00 0.00 0.00 0.00 0.00 0.00 0.00
0.00 0.00 0.00 0.00 0.00 0.00 0.00 0.00 0.00 0.00 0.00 0.00 0.00 0.00 0.00 0.00 0.00 0.00 0.00 0.00 0.00 0.00 0.00 0.00 0.00 0.00 0.00 0.00 0.00 0.00 0.00 0.00 0.00 0.00 0.00 0.00 0.00 0.00 0.00 0.00 0.00 0.00 0.00 0.00
0.00 0.00 0.00 0.00 0.00 0.00 0.00 0.00 0.00 0.00 0.00 0.00 0.00 0.00 0.00 0.00 0.00 0.00 0.00 0.00 0.00 0.00 0.00 0.00 0.00 0.00 0.00 0.00 0.00 0.00 0.00 0.00 0.00 0.00 0.00 0.00 0.00 0.00 0.00 0.00 0.01 0.00 0.00 0.00
0.00 0.00 0.00 0.00 0.00 0.00 0.00 0.00 0.00 0.00 0.00 0.00 0.00 0.00 0.00 0.00 0.00 0.00 0.00 0.00 0.00 0.00 0.00 0.00 0.00 0.00 0.00 0.00 0.00 0.00 0.00 0.00 0.00 0.00 0.00 0.00 0.00 0.00 0.00 0.01 0.02 0.00 0.00 0.00
0.00 0.00 0.00 0.00 0.00 0.00 0.00 0.00 0.00 0.00 0.00 0.00 0.00 0.00 0.00 0.00 0.00 0.00 0.00 0.00 0.00 0.00 0.00 0.00 0.00 0.00 0.00 0.00 0.00 0.00 0.00 0.00 0.00 0.00 0.00 0.00 0.00 0.00 0.00 0.02 0.05 0.01 0.00 0.00
0.00 0.00 0.00 0.00 0.00 0.00 0.00 0.00 0.00 0.00 0.00 0.00 0.00 0.00 0.00 0.00 0.00 0.00 0.00 0.00 0.00 0.00 0.00 0.00 0.00 0.00 0.00 0.00 0.00 0.00 0.00 0.00 0.00 0.00 0.00 0.00 0.00 0.00 0.00 0.01 0.03 0.03 0.02 0.01
0.00 0.00 0.00 0.00 0.00 0.00 0.00 0.00 0.00 0.00 0.00 0.00 0.00 0.00 0.00 0.00 0.00 0.00 0.00 0.00 0.00 0.00 0.00 0.00 0.00 0.00 0.00 0.00 0.00 0.00 0.00 0.00 0.00 0.00 0.00 0.00 0.00 0.00 0.00 0.00 0.01 0.01 0.02 0.03
0.00 0.00 0.00 0.00 0.00 0.00 0.00 0.00 0.00 0.00 0.00 0.00 0.00 0.00 0.00 0.00 0.00 0.00 0.00 0.00 0.00 0.00 0.00 0.00 0.00 0.00 0.00 0.00 0.00 0.00 0.00 0.00 0.00 0.00 0.00 0.00 0.00 0.00 0.00 0.00 0.00 0.00 0.00 0.01
0.00 0.00 0.00 0.00 0.00 0.00 0.00 0.00 0.00 0.00 0.00 0.00 0.00 0.00 0.00 0.00 0.00 0.00 0.00 0.00 0.00 0.00 0.00 0.00 0.00 0.00 0.00 0.00 0.00 0.00 0.00 0.00 0.00 0.00 0.00 0.00 0.00 0.00 0.00 0.00 0.00 0.00 0.00 0.00
0.00 0.00 0.00 0.00 0.00 0.00 0.00 0.00 0.00 0.00 0.00 0.00 0.00 0.00 0.00 0.00 0.00 0.00 0.00 0.00 0.00 0.00 0.00 0.00 0.00 0.00 0.00 0.00 0.00 0.00 0.00 0.00 0.00 0.00 0.00 0.00 0.00 0.00 0.00 0.00 0.00 0.00 0.00 0.00
0.00 0.00 0.00 0.00 0.00 0.00 0.00 0.00 0.00 0.00 0.00 0.00 0.00 0.00 0.00 0.00 0.00 0.00 0.00 0.00 0.00 0.00 0.00 0.00 0.00 0.00 0.00 0.00 0.00 0.00 0.00 0.00 0.00 0.00 0.00 0.00 0.00 0.00 0.00 0.00 0.00 0.00 0.00 0.00
0.00 0.00 0.00 0.00 0.00 0.00 0.00 0.00 0.00 0.00 0.00 0.00 0.00 0.00 0.00 0.00 0.00 0.00 0.00 0.00 0.00 0.00 0.00 0.00 0.00 0.00 0.00 0.00 0.00 0.00 0.00 0.00 0.00 0.00 0.00 0.00 0.00 0.00 0.00 0.00 0.00 0.00 0.01 0.01
0.00 0.00 0.00 0.00 0.00 0.00 0.00 0.00 0.00 0.00 0.00 0.00 0.00 0.00 0.00 0.00 0.00 0.00 0.00 0.00 0.00 0.00 0.00 0.00 0.00 0.00 0.00 0.00 0.00 0.00 0.00 0.00 0.00 0.00 0.00 0.00 0.00 0.00 0.00 0.00 0.00 0.01 0.01 0.00
0.00 0.00 0.00 0.00 0.00 0.00 0.00 0.00 0.00 0.00 0.00 0.00 0.00 0.00 0.00 0.00 0.00 0.00 0.00 0.00 0.00 0.00 0.00 0.00 0.00 0.00 0.00 0.00 0.00 0.00 0.00 0.00 0.00 0.00 0.00 0.00 0.00 0.00 0.00 0.00 0.00 0.01 0.01 0.01
0.00 0.00 0.00 0.00 0.00 0.00 0.00 0.00 0.00 0.00 0.00 0.00 0.00 0.00 0.00 0.00 0.00 0.00 0.00 0.00 0.00 0.00 0.00 0.00 0.00 0.00 0.00 0.00 0.00 0.00 0.00 0.00 0.00 0.00 0.00 0.00 0.00 0.00 0.00 0.00 0.00 0.01 0.01 0.01
0.00 0.00 0.00 0.00 0.00 0.00 0.00 0.00 0.00 0.00 0.00 0.00 0.00 0.00 0.00 0.00 0.00 0.00 0.00 0.00 0.00 0.00 0.00 0.00 0.00 0.00 0.00 0.00 0.00 0.00 0.00 0.00 0.00 0.00 0.00 0.00 0.00 0.00 0.00 0.00 0.01 0.01 0.01 0.01
0.00 0.00 0.00 0.00 0.00 0.00 0.00 0.00 0.00 0.00 0.00 0.00 0.00 0.00 0.00 0.00 0.00 0.00 0.00 0.00 0.00 0.00 0.00 0.00 0.00 0.00 0.00 0.00 0.00 0.00 0.00 0.00 0.00 0.00 0.00 0.00 0.00 0.00 0.00 0.00 0.01 0.01 0.01 0.01
0.00 0.00 0.00 0.00 0.00 0.00 0.00 0.00 0.00 0.00 0.00 0.00 0.00 0.00 0.00 0.00 0.00 0.00 0.00 0.00 0.00 0.00 0.00 0.00 0.00 0.00 0.00 0.00 0.00 0.00 0.00 0.00 0.00 0.00 0.00 0.00 0.00 0.00 0.00 0.00 0.00 0.00 0.01 0.01
0.00 0.00 0.00 0.00 0.00 0.00 0.00 0.00 0.00 0.00 0.00 0.00 0.00 0.00 0.00 0.00 0.00 0.00 0.00 0.00 0.00 0.00 0.00 0.00 0.00 0.00 0.00 0.00 0.00 0.00 0.00 0.00 0.00 0.00 0.00 0.00 0.00 0.00 0.00 0.00 0.00 0.00 0.01 0.01
0.00 0.00 0.00 0.00 0.00 0.00 0.00 0.00 0.00 0.00 0.00 0.00 0.00 0.00 0.00 0.00 0.00 0.00 0.00 0.00 0.00 0.00 0.00 0.00 0.00 0.00 0.00 0.00 0.00 0.00 0.00 0.00 0.00 0.00 0.00 0.00 0.00 0.00 0.00 0.00 0.00 0.00 0.01 0.01
0.00 0.00 0.00 0.00 0.00 0.00 0.00 0.00 0.00 0.00 0.00 0.00 0.00 0.00 0.00 0.00 0.00 0.00 0.00 0.00 0.00 0.00 0.00 0.00 0.00 0.00 0.00 0.00 0.00 0.00 0.00 0.00 0.00 0.00 0.00 0.00 0.00 0.00 0.00 0.00 0.00 0.01 0.01 0.01
0.00 0.00 0.00 0.00 0.00 0.00 0.00 0.00 0.00 0.00 0.00 0.00 0.00 0.00 0.00 0.00 0.00 0.00 0.00 0.00 0.00 0.00 0.00 0.00 0.00 0.00 0.00 0.00 0.00 0.00 0.00 0.00 0.00 0.00 0.00 0.00 0.00 0.00 0.00 0.00 0.00 0.01 0.01 0.01
MSLP
1029.33 1029.08 1028.86 1028.68 1028.59 1028.58 1028.68 1028.89 1029.20 1029.63 1030.16 1030.79 1031.51 1032.31 1033.15 1034.02 1034.87 1035.66 1036.36 1036.94 1037.38 1037.65 1037.77 1037.74 1037.58 1037.29 1036.90 1036.44 1035.90 1035.32 1034.70 1034.04 1033.37 1032.68 1031.98 1031.25 1030.50 1029.70 1028.85 1027.94 1026.95 1025.89 1024.77 1023.63
1029.67 1029.27 1028.85 1028.47 1028.17 1027.99 1027.97 1028.12 1028.45 1028.95 1029.61 1030.40 1031.30 1032.25 1033.22 1034.16 1035.03 1035.80 1036.45 1036.95 1037.31 1037.52 1037.60 1037.55 1037.40 1037.15 1036.81 1036.39 1035.90 1035.35 1034.74 1034.09 1033.42 1032.72 1032.00 1031.27 1030.51 1029.73 1028.90 1028.01 1027.05 1026.03 1024.95 1023.85
1030.10 1029.54 1028.92 1028.32 1027.81 1027.45 1027.30 1027.39 1027.73 1028.30 1029.08 1030.03 1031.09 1032.19 1033.27 1034.28 1035.18 1035.93 1036.52 1036.96 1037.24 1037.40 1037.44 1037.38 1037.24 1037.02 1036.73 1036.36 1035.92 1035.41 1034.83 1034.20 1033.52 1032.82 1032.10 1031.37 1030.63 1029.87 1029.08 1028.24 1027.33 1026.37 1025.36 1024.33
1030.50 1029.78 1028.98 1028.18 1027.49 1026.97 1026.72 1026.75 1027.09 1027.73 1028.62 1029.70 1030.89 1032.12 1033.30 1034.37 1035.29 1036.03 1036.59 1036.97 1037.20 1037.30 1037.32 1037.25 1037.12 1036.94 1036.69 1036.37 1035.97 1035.49 1034.94 1034.32 1033.66 1032.96 1032.25 1031.54 1030.82 1030.10 1029.35 1028.57 1027.74 1026.86 1025.93 1024.98
1030.70 1029.86 1028.92 1027.98 1027.15 1026.53 1026.20 1026.20 1026.56 1027.25 1028.23 1029.42 1030.72 1032.04 1033.30 1034.42 1035.36 1036.10 1036.63 1036.97 1037.16 1037.24 1037.23 1037.17 1037.06 1036.90 1036.68 1036.40 1036.03 1035.58 1035.05 1034.45 1033.80 1033.12 1032.42 1031.73 1031.04 1030.36 1029.67 1028.96 1028.20 1027.40 1026.55 1025.68
1030.53 1029.63 1028.62 1027.61 1026.73 1026.07 1025.73 1025.74 1026.14 1026.88 1027.93 1029.19 1030.57 1031.95 1033.26 1034.41 1035.36 1036.09 1036.61 1036.94 1037.11 1037.18 1037.17 1037.12 1037.02 1036.88 1036.69 1036.43 1036.08 1035.65 1035.14 1034.55 1033.91 1033.24 1032.57 1031.90 1031.25 1030.61 1029.97 1029.32 1028.63 1027.90 1027.13 1026.32
1029.91 1029.00 1028.00 1027.02 1026.17 1025.56 1025.28 1025.35 1025.81 1026.62 1027.72 1029.02 1030.44 1031.84 1033.16 1034.32 1035.27 1036.00 1036.52 1036.85 1037.03 1037.10 1037.11 1037.07 1036.99 1036.87 1036.69 1036.44 1036.10 1035.68 1035.17 1034.60 1033.97 1033.32 1032.67 1032.03 1031.41 1030.81 1030.21 1029.60 1028.97 1028.30 1027.58 1026.83
1028.80 1027.95 1027.05 1026.19 1025.47 1025.00 1024.84 1025.03 1025.58 1026.45 1027.60 1028.92 1030.33 1031.73 1033.03 1034.17 1035.10 1035.83 1036.34 1036.68 1036.88 1036.99 1037.01 1036.99 1036.93 1036.82 1036.65 1036.40 1036.07 1035.65 1035.15 1034.59 1033.98 1033.35 1032.72 1032.11 1031.52 1030.94 1030.38 1029.80 1029.20 1028.56 1027.88 1027.18
1027.29 1026.57 1025.83 1025.17 1024.67 1024.40 1024.44 1024.79 1025.45 1026.40 1027.58 1028.90 1030.28 1031.63 1032.88 1033.97 1034.87 1035.58 1036.10 1036.45 1036.68 1036.81 1036.87 1036.87 1036.83 1036.72 1036.55 1036.31 1035.98 1035.56 1035.07 1034.52 1033.94 1033.33 1032.74 1032.15 1031.58 1031.03 1030.47 1029.91 1029.32 1028.69 1028.04 1027.36
1025.54 1024.97 1024.46 1024.05 1023.83 1023.83 1024.10 1024.64 1025.44 1026.47 1027.66 1028.96 1030.28 1031.56 1032.73 1033.76 1034.61 1035.28 1035.80 1036.17 1036.42 1036.58 1036.67 1036.70 1036.67 1036.57 1036.40 1036.15 1035.82 1035.42 1034.94 1034.42 1033.86 1033.29 1032.73 1032.17 1031.63 1031.08 1030.53 1029.96 1029.36 1028.74 1028.08 1027.41
1023.72 1023.34 1023.08 1022.96 1023.04 1023.34 1023.86 1024.61 1025.55 1026.65 1027.85 1029.11 1030.35 1031.54 1032.61 1033.55 1034.34 1034.98 1035.48 1035.86 1036.13 1036.32 1036.44 1036.48 1036.46 1036.36 1036.20 1035.95 1035.62 1035.23 1034.78 1034.28 1033.77 1033.25 1032.72 1032.20 1031.67 1031.14 1030.58 1030.00 1029.38 1028.73 1028.06 1027.39
1022.01 1021.82 1021.81 1022.00 1022.38 1022.97 1023.75 1024.68 1025.75 1026.91 1028.11 1029.32 1030.47 1031.55 1032.52 1033.37 1034.09 1034.69 1035.17 1035.55 1035.84 1036.04 1036.17 1036.23 1036.21 1036.12 1035.94 1035.69 1035.38 1035.00 1034.59 1034.14 1033.67 1033.20 1032.72 1032.24 1031.73 1031.21 1030.64 1030.04 1029.39 1028.71 1028.02 1027.34
1020.51 1020.51 1020.74 1021.20 1021.87 1022.72 1023.72 1024.82 1026.00 1027.20 1028.39 1029.53 1030.60 1031.57 1032.45 1033.21 1033.87 1034.42 1034.88 1035.26 1035.55 1035.76 1035.90 1035.96 1035.94 1035.84 1035.66 1035.41 1035.11 1034.76 1034.37 1033.97 1033.56 1033.15 1032.72 1032.28 1031.80 1031.29 1030.72 1030.09 1029.41 1028.71 1027.98 1027.28
1019.24 1019.42 1019.87 1020.56 1021.47 1022.54 1023.72 1024.96 1026.21 1027.43 1028.60 1029.68 1030.67 1031.56 1032.35 1033.04 1033.64 1034.17 1034.61 1034.98 1035.28 1035.49 1035.63 1035.68 1035.65 1035.54 1035.35 1035.10 1034.81 1034.48 1034.14 1033.79 1033.44 1033.08 1032.71 1032.31 1031.87 1031.36 1030.79 1030.15 1029.45 1028.71 1027.96 1027.24
1018.16 1018.50 1019.14 1020.04 1021.14 1022.37 1023.68 1025.01 1026.30 1027.53 1028.66 1029.69 1030.62 1031.44 1032.17 1032.82 1033.39 1033.90 1034.34 1034.71 1035.00 1035.22 1035.35 1035.39 1035.34 1035.22 1035.03 1034.78 1034.49 1034.20 1033.89 1033.59 1033.29 1032.99 1032.67 1032.32 1031.90 1031.42 1030.85 1030.20 1029.49 1028.73 1027.96 1027.21
1017.20 1017.70 1018.50 1019.56 1020.79 1022.14 1023.53 1024.90 1026.21 1027.42 1028.52 1029.51 1030.39 1031.17 1031.87 1032.50 1033.07 1033.57 1034.02 1034.40 1034.70 1034.92 1035.05 1035.08 1035.02 1034.88 1034.68 1034.44 1034.16 1033.89 1033.62 1033.36 1033.12 1032.87 1032.59 1032.28 1031.90 1031.43 1030.88 1030.24 1029.52 1028.76 1027.97 1027.21
1016.27 1016.93 1017.87 1019.05 1020.38 1021.79 1023.22 1024.60 1025.89 1027.08 1028.15 1029.11 1029.96 1030.72 1031.42 1032.06 1032.64 1033.17 1033.64 1034.04 1034.35 1034.58 1034.70 1034.73 1034.66 1034.52 1034.32 1034.08 1033.83 1033.58 1033.34 1033.13 1032.92 1032.71 1032.48 1032.20 1031.85 1031.42 1030.88 1030.26 1029.55 1028.79 1028.01 1027.24
1015.35 1016.16 1017.23 1018.50 1019.88 1021.32 1022.74 1024.09 1025.36 1026.51 1027.55 1028.48 1029.32 1030.10 1030.81 1031.47 1032.09 1032.66 1033.16 1033.59 1033.93 1034.16 1034.30 1034.33 1034.27 1034.13 1033.94 1033.72 1033.49 1033.27 1033.07 1032.89 1032.72 1032.55 1032.36 1032.11 1031.79 1031.38 1030.88 1030.28 1029.60 1028.86 1028.08 1027.31
1014.44 1015.40 1016.58 1017.91 1019.32 1020.74 1022.12 1023.43 1024.64 1025.75 1026.76 1027.68 1028.52 1029.31 1030.06 1030.76 1031.42 1032.03 1032.58 1033.04 1033.40 1033.66 1033.81 1033.86 1033.82 1033.70 1033.54 1033.35 1033.15 1032.97 1032.81 1032.67 1032.55 1032.41 1032.25 1032.03 1031.74 1031.36 1030.88 1030.32 1029.67 1028.96 1028.21 1027.45
1013.60 1014.70 1015.96 1017.32 1018.72 1020.11 1021.43 1022.68 1023.83 1024.89 1025.86 1026.77 1027.62 1028.43 1029.21 1029.96 1030.66 1031.32 1031.90 1032.40 1032.79 1033.07 1033.25 1033.33 1033.32 1033.24 1033.12 1032.97 1032.83 1032.70 1032.59 1032.49 1032.40 1032.30 1032.16 1031.97 1031.71 1031.36 1030.92 1030.38 1029.77 1029.10 1028.39 1027.65
1012.90 1014.10 1015.42 1016.79 1018.15 1019.48 1020.73 1021.89 1022.98 1023.98 1024.92 1025.82 1026.68 1027.51 1028.32 1029.11 1029.85 1030.54 1031.15 1031.67 1032.09 1032.40 1032.61 1032.73 1032.76 1032.73 1032.67 1032.59 1032.51 1032.45 1032.39 1032.35 1032.30 1032.23 1032.12 1031.95 1031.71 1031.39 1030.97 1030.48 1029.91 1029.28 1028.60 1027.89
1012.37 1013.65 1014.99 1016.33 1017.63 1018.88 1020.04 1021.13 1022.14 1023.09 1024.01 1024.89 1025.75 1026.60 1027.44 1028.24 1029.01 1029.72 1030.36 1030.90 1031.34 1031.68 1031.92 1032.08 1032.16 1032.20 1032.21 1032.20 1032.20 1032.20 1032.22 1032.23 1032.22 1032.18 1032.10 1031.95 1031.73 1031.43 1031.04 1030.57 1030.04 1029.44 1028.80 1028.12
1012.03 1013.34 1014.65 1015.93 1017.16 1018.31 1019.38 1020.39 1021.34 1022.24 1023.13 1024.00 1024.87 1025.73 1026.58 1027.40 1028.19 1028.91 1029.55 1030.10 1030.55 1030.91 1031.19 1031.39 1031.53 1031.64 1031.72 1031.80 1031.87 1031.96 1032.03 1032.10 1032.14 1032.13 1032.07 1031.94 1031.73 1031.44 1031.07 1030.63 1030.12 1029.56 1028.95 1028.29
1011.84 1013.11 1014.36 1015.56 1016.68 1017.74 1018.72 1019.65 1020.55 1021.42 1022.29 1023.16 1024.04 1024.91 1025.77 1026.60 1027.39 1028.11 1028.75 1029.30 1029.76 1030.14 1030.44 1030.68 1030.88 1031.05 1031.21 1031.37 1031.52 1031.67 1031.82 1031.93 1032.01 1032.04 1032.00 1031.88 1031.68 1031.40 1031.04 1030.61 1030.12 1029.58 1028.99 1028.36
1011.70 1012.89 1014.04 1015.13 1016.15 1017.11 1018.01 1018.89 1019.74 1020.60 1021.46 1022.34 1023.23 1024.12 1024.99 1025.82 1026.61 1027.33 1027.96 1028.51 1028.98 1029.37 1029.69 1029.97 1030.22 1030.45 1030.68 1030.90 1031.13 1031.34 1031.54 1031.71 1031.82 1031.87 1031.84 1031.72 1031.52 1031.24 1030.89 1030.47 1029.99 1029.47 1028.90 1028.28
1011.51 1012.59 1013.61 1014.58 1015.50 1016.37 1017.21 1018.04 1018.88 1019.73 1020.61 1021.50 1022.41 1023.32 1024.21 1025.05 1025.84 1026.55 1027.19 1027.73 1028.20 1028.60 1028.95 1029.26 1029.55 1029.83 1030.11 1030.40 1030.68 1030.95 1031.19 1031.39 1031.52 1031.59 1031.56 1031.45 1031.25 1030.97 1030.61 1030.19 1029.72 1029.21 1028.65 1028.06
1011.18 1012.12 1013.01 1013.86 1014.68 1015.47 1016.27 1017.08 1017.92 1018.79 1019.69 1020.61 1021.55 1022.49 1023.39 1024.25 1025.04 1025.76 1026.39 1026.94 1027.42 1027.83 1028.20 1028.54 1028.87 1029.19 1029.52 1029.85 1030.17 1030.48 1030.75 1030.97 1031.12 1031.19 1031.17 1031.05 1030.85 1030.56 1030.20 1029.79 1029.33 1028.82 1028.28 1027.71
Thickness
5623 5621 5616 5609 5601 5588 5574 5563 5553 5560 5552 5544 5517 5497 5478 5457 5437 5421 5401 5384 5368 5350 5332 5316 5300 5287 5275 5263 5252 5240 5228 5216 5205 5194 5183 5171 5158 5142 5123 5105 5092 5087 5088 5094
5620 5620 5612 5607 5603 5590 5577 5567 5558 5555 5548 5542 5514 5490 5469 5449 5434 5416 5398 5382 5365 5348 5330 5313 5298 5285 5273 5261 5249 5238 5225 5213 5202 5191 5180 5168 5155 5139 5122 5105 5093 5087 5088 5093
5611 5606 5612 5610 5612 5591 5582 5573 5567 5558 5551 5519 5502 5486 5465 5445 5428 5411 5396 5380 5362 5343 5327 5311 5296 5283 5270 5259 5247 5235 5223 5212 5201 5190 5178 5167 5154 5139 5123 5106 5094 5088 5087 5091
5592 5603 5613 5627 5613 5601 5590 5584 5570 5565 5548 5523 5505 5481 5459 5441 5424 5408 5394 5376 5358 5339 5324 5309 5294 5281 5268 5257 5245 5234 5223 5212 5201 5190 5179 5168 5156 5141 5125 5109 5097 5089 5087 5089
5581 5589 5599 5615 5609 5600 5589 5585 5579 5561 5536 5510 5483 5463 5449 5439 5423 5407 5392 5375 5356 5339 5323 5307 5293 5280 5267 5256 5245 5234 5225 5214 5203 5192 5182 5171 5159 5145 5130 5116 5103 5093 5089 5088
5570 5589 5600 5625 5611 5597 5588 5576 5579 5557 5529 5502 5479 5472 5463 5439 5422 5405 5388 5371 5354 5337 5321 5306 5292 5279 5267 5256 5245 5236 5226 5215 5204 5194 5183 5173 5161 5149 5135 5122 5110 5099 5093 5090
5570 5576 5604 5621 5599 5591 5582 5595 5581 5555 5533 5508 5492 5483 5461 5438 5420 5404 5387 5370 5353 5336 5320 5305 5292 5279 5267 5255 5245 5236 5226 5216 5207 5197 5186 5176 5164 5153 5141 5129 5118 5106 5098 5094
5562 5565 5602 5613 5593 5592 5600 5588 5569 5550 5531 5512 5492 5470 5453 5436 5419 5402 5384 5368 5351 5334 5319 5305 5292 5279 5266 5256 5246 5237 5227 5218 5210 5200 5190 5180 5169 5160 5150 5140 5128 5117 5107 5101
5606 5629 5640 5618 5614 5610 5595 5580 5564 5545 5526 5506 5484 5466 5452 5433 5416 5400 5383 5366 5350 5334 5319 5305 5292 5280 5268 5258 5249 5239 5230 5221 5213 5205 5196 5186 5176 5167 5159 5151 5140 5129 5118 5110
5614 5637 5637 5620 5613 5605 5592 5580 5563 5544 5524 5504 5484 5465 5447 5432 5415 5399 5382 5365 5349 5334 5319 5305 5293 5281 5270 5260 5251 5242 5233 5225 5218 5210 5202 5192 5183 5175 5168 5160 5151 5140 5129 5121
5623 5636 5632 5629 5615 5605 5590 5574 5556 5539 5522 5503 5483 5462 5443 5429 5415 5398 5384 5365 5349 5334 5320 5307 5294 5283 5273 5263 5254 5245 5237 5229 5221 5215 5206 5197 5189 5181 5175 5167 5161 5153 5143 5135
5649 5653 5640 5641 5623 5605 5588 5571 5555 5536 5515 5497 5480 5461 5443 5428 5414 5398 5382 5365 5350 5335 5322 5309 5297 5285 5276 5267 5258 5249 5241 5233 5226 5219 5211 5203 5194 5187 5180 5175 5169 5163 5156 5149
5661 5655 5642 5636 5617 5603 5590 5572 5554 5537 5517 5493 5474 5459 5444 5428 5413 5398 5382 5366 5351 5337 5324 5311 5299 5288 5278 5270 5262 5253 5244 5237 5231 5223 5216 5209 5203 5194 5187 5182 5177 5171 5165 5159
5651 5639 5634 5621 5608 5597 5582 5565 5548 5529 5511 5492 5474 5457 5442 5426 5411 5396 5381 5366 5352 5338 5325 5313 5301 5291 5282 5273 5265 5256 5248 5241 5235 5227 5219 5213 5207 5200 5194 5188 5183 5179 5174 5168
5646 5639 5634 5618 5602 5586 5571 5555 5537 5519 5501 5485 5469 5454 5439 5425 5410 5395 5381 5366 5354 5341 5327 5315 5304 5294 5285 5276 5268 5260 5252 5245 5239 5232 5225 5219 5213 5207 5201 5195 5190 5186 5182 5178
5643 5629 5616 5605 5594 5580 5564 5551 5540 5521 5502 5483 5466 5451 5438 5424 5409 5395 5380 5367 5354 5342 5329 5317 5307 5297 5288 5279 5271 5263 5255 5250 5245 5237 5229 5224 5218 5212 5207 5202 5198 5195 5191 5188
5627 5618 5608 5600 5590 5579 5569 5560 5548 5527 5505 5485 5467 5449 5434 5420 5406 5393 5381 5368 5355 5343 5331 5320 5310 5300 5291 5282 5274 5266 5258 5251 5247 5239 5233 5228 5223 5217 5211 5207 5203 5201 5197 5195
5655 5646 5630 5619 5604 5585 5571 5556 5542 5524 5506 5487 5465 5447 5434 5422 5411 5397 5382 5367 5354 5343 5332 5322 5312 5303 5294 5285 5277 5269 5261 5253 5248 5242 5237 5233 5229 5221 5216 5211 5207 5205 5203 5200
5649 5639 5628 5617 5606 5591 5576 5557 5540 5522 5503 5484 5465 5450 5437 5425 5412 5397 5382 5367 5355 5344 5334 5324 5315 5306 5296 5288 5280 5272 5263 5256 5250 5245 5240 5236 5230 5225 5221 5215 5211 5209 5207 5204
5643 5634 5623 5612 5599 5587 5572 5555 5536 5517 5500 5483 5466 5448 5433 5421 5409 5396 5382 5370 5360 5349 5338 5327 5317 5308 5299 5290 5283 5274 5265 5258 5252 5246 5242 5237 5233 5228 5224 5220 5216 5212 5210 5206
5638 5627 5617 5606 5593 5580 5567 5551 5533 5515 5497 5482 5467 5452 5437 5422 5409 5396 5383 5372 5361 5349 5339 5330 5320 5311 5302 5293 5285 5276 5268 5260 5253 5247 5242 5237 5233 5229 5226 5222 5218 5215 5211 5208
5629 5620 5611 5599 5585 5572 5558 5544 5530 5514 5496 5480 5466 5451 5436 5420 5407 5395 5386 5376 5365 5353 5341 5331 5321 5313 5304 5296 5286 5277 5269 5262 5255 5248 5242 5237 5233 5229 5226 5222 5219 5216 5212 5209
5621 5613 5603 5591 5579 5565 5549 5537 5524 5510 5496 5482 5468 5454 5441 5428 5413 5400 5389 5377 5365 5354 5342 5332 5323 5315 5308 5296 5287 5279 5271 5263 5256 5250 5243 5238 5233 5229 5225 5222 5219 5216 5213 5211
5612 5604 5593 5581 5567 5553 5541 5530 5518 5505 5493 5481 5469 5456 5443 5427 5413 5403 5393 5383 5368 5356 5343 5333 5325 5317 5309 5297 5288 5280 5272 5265 5258 5251 5245 5239 5233 5229 5225 5221 5218 5216 5214 5212
5602 5593 5582 5571 5560 5552 5539 5524 5509 5496 5483 5473 5462 5450 5440 5430 5418 5405 5391 5382 5370 5358 5344 5334 5326 5318 5308 5298 5290 5282 5274 5267 5260 5253 5246 5240 5234 5229 5224 5221 5218 5215 5214 5213
5592 5586 5579 5570 5561 5548 5533 5519 5508 5495 5483 5471 5458 5447 5436 5425 5414 5402 5390 5379 5368 5358 5345 5334 5326 5319 5308 5300 5291 5283 5276 5269 5261 5254 5248 5242 5236 5230 5225 5220 5217 5215 5213 5213
5577 5571 5562 5553 5545 5538 5527 5518 5509 5497 5486 5476 5462 5449 5436 5424 5411 5399 5388 5377 5366 5356 5345 5334 5325 5317 5309 5301 5292 5285 5277 5270 5263 5257 5250 5243 5237 5231 5226 5221 5217 5215 5213 5213